Terminal Aerodrome Forecast
Issued by NWS Quad Cities IA IL

Home | Current Version | Previous Version | Text Only | Print | Product List | Glossary On
Versions: 1 2 3 4 5 6 7 8 9 10 11 12 13 14 15 16 17 18
000
FTUS43 KDVN 240800 AAA
TAFDBQ
TAF AMD
KDBQ 240821Z 2408/2506 VRB03KT P6SM SCT050
      TEMPO 2409/2411 4SM BR
     FM241600 15005KT P6SM FEW040
     FM250400 16006KT P6SM BKN200=

USA.gov is the U.S. government's official web portal to all federal, state and local government web resources and services.